Wind_Speed
58 59 61 62 63 64 64 65 64 64 64 64 64 65 65 65 65 65 65 64 64 64 64 64 64 64 64 63 62 61 60 58 57 56 56 55 55 55 55 55 55 56 56 57 58 59 61 62 62 62 63 65 66 66 67 68 70 73 76 78 77 77 77 76 75 73 72 74 76 76 75 76 78 78 78 76 74 74 73 69 66 64 61 57 57
56 56 57 58 59 59 59 59 59 60 61 61 62 62 63 63 62 63 63 62 62 62 62 63 62 62 61 61 60 58 57 55 54 53 52 52 51 51 51 51 51 51 52 52 53 55 57 59 61 61 62 64 65 67 68 68 70 72 75 78 79 79 79 78 76 75 73 73 75 77 77 77 78 79 79 78 77 75 75 73 69 66 64 61 59
52 52 53 53 54 55 56 57 58 59 59 60 60 60 60 61 61 61 61 61 61 62 62 62 61 60 59 57 56 55 54 52 51 50 49 48 48 47 47 47 46 47 47 48 49 50 52 54 57 60 61 62 64 66 68 69 70 72 75 78 81 81 80 79 78 77 76 74 75 77 79 79 79 81 81 80 80 78 76 75 73 68 65 63 61
48 48 50 52 53 55 56 56 57 57 58 58 58 58 59 59 60 60 60 61 61 61 61 60 59 58 56 54 53 52 51 50 48 47 46 45 44 43 43 43 42 42 42 43 44 45 47 50 53 56 59 61 63 65 68 69 70 72 75 78 81 83 82 81 80 79 78 77 76 77 79 80 80 81 82 82 82 81 78 76 76 72 68 65 63
47 49 51 53 55 56 56 56 56 56 56 56 57 57 58 58 59 59 60 61 61 60 59 58 57 56 54 53 51 50 49 47 46 44 43 42 41 40 40 39 39 39 39 39 39 40 42 45 48 52 56 59 62 64 67 69 70 72 74 77 81 84 84 83 82 81 80 79 77 77 78 80 81 81 83 84 84 83 81 79 78 76 72 68 65
49 51 53 55 56 55 55 55 54 54 54 55 55 56 57 57 57 59 59 60 59 58 57 56 55 54 53 52 51 50 48 46 45 43 41 40 39 38 37 36 36 36 36 36 36 36 38 40 43 47 51 56 59 62 65 68 70 72 74 77 80 83 85 85 85 84 82 81 79 78 79 80 81 82 83 84 85 86 84 83 81 80 77 74 69
51 53 55 55 55 55 54 54 53 53 53 53 54 55 56 56 57 58 58 58 58 57 56 55 54 53 52 51 51 50 49 47 45 43 41 39 37 35 34 34 34 33 33 33 33 33 34 35 38 42 46 51 56 60 63 66 69 71 73 76 79 82 85 87 86 86 85 83 81 80 80 80 81 82 83 84 86 88 87 86 84 82 81 79 76
53 54 55 55 54 54 54 53 52 52 52 52 53 54 54 55 56 57 57 56 56 55 54 53 52 52 51 51 51 50 50 49 47 45 43 40 38 35 32 31 31 31 30 30 30 31 31 32 34 37 41 46 52 57 61 64 68 71 73 75 78 81 85 87 88 88 87 86 84 83 82 81 82 83 84 84 86 88 90 89 87 85 84 83 81
53 54 54 54 54 53 53 52 51 51 51 51 52 52 53 54 54 55 55 55 54 54 53 52 51 50 50 51 51 51 51 50 48 46 44 42 39 36 33 30 29 28 28 28 28 28 29 29 30 32 36 41 47 52 58 62 66 69 72 74 77 80 83 86 88 89 89 88 87 85 84 83 84 84 85 85 86 87 89 91 90 88 87 85 84
53 54 53 53 53 53 52 51 50 50 50 51 51 51 52 52 53 53 53 54 54 53 53 52 51 50 51 51 51 51 50 50 48 47 44 42 40 37 34 31 28 27 26 25 25 26 27 27 28 29 31 35 41 47 53 58 63 67 70 73 76 78 81 85 88 90 90 90 89 88 86 86 86 86 86 87 87 87 88 90 93 92 90 88 86
53 53 52 52 52 52 51 50 50 49 50 50 50 50 51 51 52 52 52 53 53 52 52 51 51 51 51 51 51 51 50 49 48 46 44 42 39 37 34 32 29 27 25 24 23 23 25 25 26 27 28 31 35 41 47 53 59 64 68 71 74 77 79 83 86 89 91 92 92 91 90 89 88 87 87 87 88 88 87 88 92 94 93 91 88
52 51 51 52 52 51 50 49 49 49 50 49 49 49 50 50 51 51 51 51 51 51 51 51 50 50 50 50 50 50 50 49 47 46 44 41 39 37 34 31 29 27 25 24 23 22 23 24 24 25 26 28 31 36 41 48 54 60 65 69 72 75 78 81 84 88 91 93 93 93 92 91 89 88 87 87 88 89 89 89 90 94 96 95 91
51 51 51 51 51 50 49 49 49 49 49 49 48 48 49 49 49 50 50 50 50 50 50 49 48 48 48 48 49 49 49 48 47 45 44 42 39 37 35 32 29 27 25 24 23 22 22 22 23 24 24 25 28 31 36 42 48 54 60 66 70 73 76 79 82 86 89 92 94 94 94 93 91 90 89 89 89 89 90 90 91 92 96 97 95
50 50 50 50 49 49 48 48 48 49 48 48 48 48 48 48 48 48 48 48 48 48 48 47 47 46 46 46 46 47 47 47 46 45 44 43 40 37 35 33 30 28 26 25 24 23 22 21 22 23 23 24 25 28 32 37 43 49 55 61 66 71 74 77 80 83 87 91 93 95 95 95 94 92 91 90 90 89 89 91 92 92 94 97 97
49 49 49 49 48 48 48 48 48 48 47 47 47 47 47 47 47 47 47 47 47 47 46 46 45 45 45 44 44 44 45 45 45 45 45 44 41 39 37 34 32 29 27 26 24 23 23 22 21 21 21 22 24 26 29 32 38 43 49 55 61 67 72 75 78 81 84 88 92 94 96 97 97 95 93 92 91 90 89 90 91 92 93 95 98
49 49 48 48 47 47 47 47 47 47 46 46 46 47 47 46 46 46 46 46 46 46 45 44 43 43 43 43 43 42 43 44 44 44 44 44 43 41 39 37 35 32 29 28 27 26 24 23 22 20 19 20 22 24 26 29 33 38 44 50 56 62 68 72 76 79 82 85 89 92 95 97 98 98 96 94 93 92 91 90 91 92 92 94 97
49 48 47 47 46 46 46 46 46 46 45 45 46 46 46 46 46 45 45 45 45 44 44 43 42 42 42 42 42 41 41 42 42 42 43 43 43 42 41 39 38 36 33 31 29 28 26 25 23 22 20 19 20 21 24 27 30 34 39 45 50 56 62 68 73 76 80 83 86 89 93 96 98 99 98 97 95 93 92 92 91 91 92 93 95
48 47 47 46 46 46 46 46 45 45 44 44 45 45 45 45 45 45 44 44 44 43 43 42 41 41 41 41 40 40 40 40 41 41 41 42 42 42 42 40 39 38 37 35 32 29 27 26 24 23 21 20 19 19 21 25 27 31 35 40 46 51 57 63 69 73 77 80 83 87 90 94 97 99 100 99 98 96 94 94 93 92 92 92 94
47 46 46 45 45 45 45 45 44 43 43 44 44 44 44 44 44 44 44 43 42 42 41 40 40 40 40 39 39 39 39 39 39 39 39 40 41 42 42 41 40 39 38 37 36 34 31 29 27 25 23 21 20 19 19 22 25 28 31 36 41 46 51 57 63 69 73 77 81 84 87 91 94 98 100 101 100 99 97 96 95 94 93 93 93
46 45 45 44 44 44 44 44 43 43 43 43 43 43 44 43 44 44 44 43 42 41 40 39 38 38 38 38 38 38 38 38 38 38 38 39 40 41 41 41 41 40 39 38 37 37 35 33 30 27 25 23 21 20 19 20 22 25 29 32 36 41 47 51 57 63 69 74 78 81 84 88 92 95 98 101 102 101 100 98 97 95 95 94 93
45 44 44 44 43 43 43 42 42 42 43 43 43 43 43 43 43 44 44 43 42 41 39 37 37 37 37 38 38 38 38 37 37 37 37 38 39 40 40 41 41 40 40 39 38 37 37 35 33 29 26 24 22 21 20 19 20 22 26 29 33 37 42 47 52 57 63 69 74 78 81 85 89 92 96 99 101 103 102 101 99 98 96 96 95
44 43 43 43 42 42 41 41 41 42 42 42 43 43 43 43 43 43 43 43 42 40 38 36 35 35 36 36 36 37 37 37 37 36 36 37 38 39 40 41 41 41 40 39 39 38 38 37 35 33 30 26 23 21 20 19 19 20 23 26 30 34 38 43 47 52 58 63 69 74 78 82 85 89 93 96 99 102 103 103 102 100 99 98 97
43 42 42 41 41 40 40 40 41 41 42 42 42 43 43 43 43 43 42 42 41 39 37 36 34 33 34 35 35 36 36 36 36 36 36 37 38 39 39 40 41 42 41 40 39 39 38 38 38 37 34 30 26 23 20 19 18 19 20 23 27 31 35 39 44 48 53 58 64 69 74 78 82 86 89 93 96 100 103 104 104 102 101 100 99
42 41 41 40 39 39 39 39 40 41 41 42 42 43 43 43 43 42 42 41 39 38 36 35 33 32 33 34 34 35 35 35 36 36 37 37 38 38 39 40 41 41 42 42 41 40 39 39 39 38 37 33 29 26 22 20 18 18 19 20 23 27 31 36 40 44 49 53 58 64 69 74 79 82 86 89 93 97 100 103 105 104 104 102 101
41 40 39 38 37 38 38 39 40 41 41 41 42 42 43 43 42 42 41 40 38 36 35 34 33 32 32 33 34 34 35 35 36 36 37 38 38 39 40 41 41 41 41 41 41 41 40 39 38 38 38 36 32 28 24 21 19 18 17 18 21 24 28 32 37 41 45 49 54 59 64 70 74 79 82 86 90 93 97 100 103 105 105 105 103
40 38 37 37 37 38 38 39 40 40 41 41 41 42 42 42 42 42 40 39 37 35 33 32 31 31 31 32 32 33 33 34 35 36 37 38 39 40 41 42 42 43 42 42 42 41 41 40 39 39 39 37 35 31 27 23 20 18 17 17 18 21 24 28 33 38 42 46 50 54 59 64 70 74 78 82 86 90 93 97 100 103 105 106 106
38 37 36 36 37 37 38 38 39 40 40 40 41 41 41 41 40 40 39 38 36 34 32 31 30 30 30 30 30 31 32 32 33 35 36 37 38 39 41 42 43 43 43 43 43 42 42 41 41 40 39 38 37 34 31 27 23 20 18 16 16 18 21 25 29 34 39 43 47 51 55 59 64 69 74 78 82 86 90 93 97 100 102 104 106
37 36 36 36 37 37 38 38 39 39 39 40 40 40 41 40 39 39 38 36 34 33 31 30 30 29 28 29 29 30 31 32 32 33 35 36 38 39 41 42 43 44 44 44 43 42 42 41 41 40 39 38 37 36 33 29 25 22 19 17 15 16 18 22 25 30 35 40 44 48 51 55 59 64 68 73 78 82 86 90 93 97 100 102 104
37 37 36 36 37 37 37 38 38 38 39 39 40 39 39 39 38 37 36 34 33 31 30 30 29 29 29 29 30 30 30 31 32 33 34 35 37 38 41 42 43 44 44 44 43 42 41 40 41 41 40 39 38 37 36 32 29 25 21 19 16 15 15 18 22 26 31 36 41 45 49 52 55 59 63 68 73 78 82 86 90 93 96 99 102
37 37 37 36 36 36 37 37 37 37 38 39 39 39 38 37 36 35 34 33 31 30 29 29 29 30 30 30 31 31 31 31 32 32 33 34 36 38 40 42 43 44 44 44 43 42 41 40 40 40 40 39 38 38 38 36 32 28 24 20 18 16 15 16 19 23 27 32 38 43 47 50 53 56 59 63 67 72 77 82 86 89 93 96 99
37 37 37 36 36 36 36 36 36 37 37 38 37 37 37 36 34 33 32 31 30 29 28 28 29 30 30 31 31 31 32 32 33 33 34 35 37 39 41 43 43 44 44 44 42 41 41 39 39 39 40 40 39 39 38 37 35 31 27 23 19 17 15 15 16 20 24 29 34 39 44 48 50 53 56 59 63 67 72 77 82 86 89 93 96
36 36 36 36 36 35 35 36 36 36 37 36 36 35 35 34 33 31 30 30 29 28 28 28 29 29 30 31 32 32 33 33 34 35 35 37 38 40 42 44 46 46 46 45 43 41 40 40 39 39 39 40 39 38 38 38 37 34 31 27 23 19 16 15 16 18 21 26 31 35 40 45 49 51 53 56 59 63 67 71 76 81 85 89 92
36 35 35 35 35 35 35 35 36 36 35 35 34 33 32 31 31 30 30 30 30 29 29 30 30 31 31 32 33 33 34 35 35 36 36 38 39 42 44 46 47 48 48 46 44 41 40 39 39 38 39 40 39 38 38 39 38 37 34 31 28 23 19 16 16 17 20 23 28 32 36 41 46 49 51 54 56 59 63 66 71 76 81 85 89
35 34 34 34 34 35 35 35 34 34 33 32 32 31 29 28 28 28 29 29 30 30 31 31 32 33 33 34 34 35 36 36 37 37 38 38 40 42 44 46 48 50 50 49 46 43 41 39 38 37 37 39 39 38 37 38 38 37 36 33 31 28 23 18 15 16 18 21 24 28 32 37 42 46 49 51 53 56 59 62 65 70 75 80 84
34 33 33 33 34 34 34 33 33 32 31 30 29 28 26 26 26 26 27 28 29 30 31 32 33 34 35 36 36 37 37 38 38 38 38 38 39 41 43 46 48 50 51 51 49 45 42 39 38 36 35 37 39 39 38 38 38 38 37 35 33 30 26 22 17 14 15 18 20 24 28 32 37 42 46 48 50 52 55 58 61 64 69 74 79
33 33 32 32 32 32 32 31 31 30 29 28 27 27 26 26 26 26 26 27 28 30 31 33 34 35 36 37 38 39 39 39 39 39 39 39 39 40 42 44 47 49 51 52 51 48 44 41 38 36 35 36 38 39 39 39 38 38 37 37 35 32 28 24 20 15 13 14 15 18 22 26 31 36 41 45 47 49 52 54 57 60 64 68 72
32 32 32 32 31 31 30 30 29 28 27 26 26 26 26 26 26 26 27 28 29 31 32 34 35 36 37 37 38 39 39 40 40 40 40 40 39 40 41 42 45 47 50 52 53 52 48 44 40 38 36 36 38 38 39 39 38 38 37 37 36 34 30 25 21 17 13 11 11 12 16 21 25 30 36 41 45 47 49 51 53 56 59 62 66
31 31 31 31 30 30 29 28 27 26 25 25 25 25 25 25 26 27 27 29 31 32 34 35 36 38 38 39 39 39 40 40 40 40 40 40 40 40 40 41 43 45 47 49 52 52 50 47 43 41 39 38 38 38 38 38 38 38 38 38 37 35 32 27 22 18 15 11 9 9 12 17 21 26 31 37 41 44 46 48 50 52 55 58 61
31 31 30 30 29 28 28 27 26 25 25 25 25 25 25 26 27 28 29 31 32 34 35 37 38 39 40 40 40 40 40 40 41 41 41 40 40 39 39 40 42 43 45 47 49 51 52 51 47 44 41 39 38 38 38 37 37 37 38 39 38 37 34 29 24 20 17 14 11 9 10 14 18 23 27 33 37 41 44 45 47 48 51 53 57
32 31 30 29 28 27 26 25 24 23 24 24 24 24 25 26 27 28 30 32 34 35 37 39 40 41 41 41 40 40 40 41 41 42 42 42 41 40 40 40 41 43 44 46 48 50 52 52 50 47 44 40 38 37 37 37 37 37 38 38 38 38 36 32 27 22 19 16 13 11 9 11 15 19 24 29 34 39 41 43 44 45 47 49 51
30 30 29 28 27 25 24 23 22 23 23 23 23 23 24 26 28 30 32 33 35 36 38 39 40 41 41 41 40 41 41 42 42 42 42 42 41 41 40 40 41 42 44 45 47 48 50 51 52 51 48 44 40 38 38 38 38 38 38 38 38 37 36 34 30 25 21 18 15 13 11 10 12 15 19 25 31 36 39 41 41 42 43 45 47
29 28 27 26 25 24 23 22 22 22 23 23 23 24 25 27 29 31 33 34 35 36 38 39 40 40 40 40 40 40 41 42 42 42 42 41 40 39 38 39 39 41 42 44 46 47 49 50 51 52 52 49 45 41 39 39 38 38 38 38 38 37 36 34 32 29 24 20 17 15 13 12 11 12 15 20 25 31 36 38 39 40 41 42 43
28 27 26 25 24 23 22 22 22 22 22 23 24 25 27 28 30 32 33 34 36 37 38 40 40 40 39 39 39 39 40 41 42 42 41 40 39 38 37 37 38 40 42 43 45 47 48 49 50 51 53 53 51 46 42 39 38 38 38 38 38 38 36 35 33 30 27 24 20 17 14 13 12 12 13 16 20 26 31 35 37 39 39 39 40
28 27 25 25 24 23 22 22 22 22 22 23 24 26 28 29 31 32 33 35 36 38 39 40 40 40 39 38 38 38 39 40 41 41 41 40 38 37 37 37 38 39 40 42 44 45 47 48 49 51 52 53 53 51 47 43 40 39 38 38 38 38 37 35 33 31 29 26 23 20 17 14 12 12 12 14 17 21 26 31 34 37 38 38 38
27 26 25 25 24 23 23 22 22 23 23 24 26 27 28 29 31 32 33 35 36 38 39 40 40 39 38 37 37 38 38 39 40 41 41 40 39 38 37 37 37 37 39 40 42 44 46 47 48 50 51 52 52 53 52 49 45 42 40 39 39 38 37 36 34 32 30 28 26 23 20 16 14 12 12 13 14 17 21 25 30 34 36 36 36
27 26 25 25 24 24 23 23 23 24 25 26 27 28 29 29 31 32 34 35 37 38 39 39 39 38 37 36 36 36 37 39 40 41 41 41 41 40 40 39 38 38 38 39 40 42 44 46 47 48 49 51 51 52 53 53 51 48 44 41 40 39 38 36 34 32 30 28 27 25 23 20 16 14 12 12 13 15 17 20 25 30 33 35 36
27 26 25 25 25 24 24 24 24 25 26 27 28 29 29 30 31 32 34 36 37 38 39 39 38 38 37 36 36 36 38 39 40 41 42 42 42 42 42 42 41 40 39 39 40 41 43 45 46 48 49 50 51 52 52 53 53 52 49 46 42 40 38 37 35 33 31 29 27 26 25 22 20 16 14 13 12 13 15 17 20 24 29 32 35
27 27 26 26 25 25 25 25 25 26 26 27 29 30 30 31 32 33 34 36 37 38 39 39 38 37 37 37 37 38 39 40 40 41 42 43 43 44 44 44 43 42 41 40 40 41 42 44 45 47 49 50 51 52 52 52 52 52 52 51 47 43 40 38 36 34 33 31 29 27 26 25 22 19 16 14 13 12 13 15 17 20 24 28 31
27 26 26 26 26 26 26 26 26 26 27 28 29 30 31 32 33 34 35 36 37 38 38 37 37 37 37 37 38 38 39 40 41 42 42 43 44 44 45 45 45 45 43 42 41 41 43 44 45 46 47 49 50 51 51 52 51 51 52 52 51 48 44 40 37 35 33 31 29 27 26 25 24 21 18 15 13 12 12 12 14 17 20 23 27
27 26 26 26 26 26 26 26 27 27 28 29 30 31 32 33 34 35 35 36 37 37 37 36 36 36 37 38 39 39 40 40 41 42 43 43 43 44 44 45 45 46 46 45 44 44 44 45 46 47 48 49 50 50 51 51 51 51 51 51 51 51 48 44 39 36 34 32 30 28 26 25 24 23 21 18 15 13 12 12 12 14 16 19 22
27 27 26 26 26 27 27 28 28 29 29 30 31 32 33 34 34 35 35 36 36 36 35 35 35 37 38 39 40 41 42 42 42 43 43 43 43 43 43 44 45 45 46 46 46 46 46 47 48 48 48 49 49 49 50 50 50 50 50 50 50 50 50 48 44 39 35 32 31 30 28 25 23 22 21 20 17 15 13 12 12 12 14 16 18
Wind_Direction
292 292 293 294 294 295 296 297 298 300 301 302 303 303 303 304 304 305 305 306 307 307 308 308 309 309 309 308 307 306 304 302 300 298 295 292 289 285 282 279 275 271 268 264 261 259 257 255 252 249 246 244 242 240 237 233 231 230 229 229 228 227 228 228 227 226 225 223 222 221 221 220 220 221 223 223 225 229 230 229 228 229 229 226 224
293 294 294 295 296 297 299 301 303 304 305 306 306 306 306 306 307 308 309 309 310 311 313 313 313 313 312 311 310 309 308 306 304 302 299 295 292 289 285 282 278 274 270 265 261 258 255 253 251 248 245 242 240 239 237 233 230 229 228 227 227 226 227 227 227 226 225 224 222 221 221 220 219 219 220 221 223 226 228 229 228 228 229 228 226
295 297 298 299 301 303 305 307 307 308 308 308 308 308 309 309 310 311 312 313 315 316 317 316 316 315 315 314 313 313 312 310 308 306 303 300 296 293 289 286 282 278 273 269 264 258 254 251 249 247 244 241 239 237 236 234 230 228 227 226 226 225 225 226 226 226 225 225 223 221 220 220 219 219 219 219 220 222 225 227 227 226 226 227 227
300 302 304 306 307 309 309 310 310 310 310 310 310 311 312 312 313 315 316 318 319 319 319 319 319 318 317 318 317 317 316 315 313 311 308 304 301 298 294 291 287 283 278 273 268 262 256 251 247 245 243 240 238 236 235 233 231 228 226 225 225 225 225 224 225 225 225 225 224 222 220 220 220 219 218 218 219 220 222 224 226 225 223 224 226
307 309 310 311 311 311 311 312 312 312 312 312 313 313 314 315 317 319 320 320 321 321 322 322 321 321 321 322 322 322 321 320 319 316 313 309 306 303 299 295 291 288 283 278 272 266 260 254 248 244 241 239 237 235 233 232 231 228 226 225 224 225 224 223 223 224 224 224 224 223 222 220 220 220 219 218 218 218 219 221 224 225 222 220 222
312 313 313 313 313 313 313 313 314 314 314 315 315 316 317 319 320 321 321 322 323 323 324 324 324 325 326 326 327 326 326 325 324 321 318 314 310 307 303 299 295 291 287 283 278 271 265 258 251 245 241 238 236 234 232 231 230 229 226 224 224 224 224 223 222 223 223 223 223 223 223 221 220 220 220 219 218 218 218 218 220 222 222 219 218
314 315 314 314 314 314 314 315 315 316 316 317 318 319 320 321 322 323 323 324 325 325 326 326 327 328 329 330 331 331 331 330 329 326 322 319 317 313 309 303 298 293 289 286 282 277 270 263 256 249 243 238 236 234 232 230 229 229 227 225 223 223 224 223 222 222 222 223 222 223 223 222 221 220 220 220 219 218 217 217 218 220 221 220 218
315 315 315 315 315 315 316 316 317 317 318 319 320 321 322 323 324 324 324 325 326 327 328 329 331 332 333 334 335 335 335 334 333 331 329 327 324 321 316 310 304 299 293 289 285 281 275 268 261 254 246 240 236 234 232 230 228 228 227 226 224 223 223 223 223 221 221 222 222 222 222 222 221 220 220 220 219 219 218 217 217 218 219 220 220
315 315 316 316 316 316 316 317 318 319 320 321 322 323 323 324 325 325 326 327 328 329 331 332 333 334 335 337 338 338 339 338 337 336 334 333 331 328 323 317 311 306 299 293 289 285 280 274 266 258 251 244 238 234 232 230 228 227 226 226 225 223 222 223 223 222 221 220 221 221 221 222 222 221 220 220 220 219 219 218 217 218 218 219 220
316 316 317 316 316 317 317 319 320 321 322 323 323 324 325 325 326 327 328 329 330 332 333 334 335 337 338 339 340 342 342 342 341 340 339 338 336 333 328 324 319 314 307 300 294 289 286 280 273 264 256 248 242 237 233 231 229 227 226 226 225 224 222 222 222 222 221 220 220 220 221 221 222 221 220 220 220 220 219 219 218 218 218 218 219
317 317 317 317 317 318 318 320 322 323 324 324 325 325 326 326 327 329 330 331 332 334 335 336 338 339 340 341 342 343 344 345 345 344 343 342 341 338 334 330 326 321 316 309 301 295 291 286 279 271 262 253 246 240 235 232 230 228 226 225 225 224 223 222 222 222 222 220 220 220 220 220 221 221 221 220 220 220 220 219 219 219 218 218 218
317 318 318 317 318 318 320 322 323 324 325 325 326 326 327 328 329 331 332 333 334 335 336 338 339 341 342 343 344 345 346 348 348 347 347 347 346 343 341 338 334 329 323 316 308 302 297 293 287 278 268 258 250 243 238 233 231 229 227 226 224 224 223 223 222 221 222 221 220 219 219 220 221 221 222 221 220 220 220 220 220 219 219 218 218
318 318 318 318 318 320 321 323 324 325 326 326 326 327 328 329 331 332 333 333 335 336 337 339 340 341 342 343 345 346 347 350 352 351 351 351 350 349 348 346 342 337 330 323 316 310 305 301 295 287 275 264 255 247 241 236 232 230 228 226 225 224 223 223 222 221 221 221 221 220 219 220 220 221 221 222 221 220 220 221 220 220 219 219 218
318 318 318 319 319 321 322 324 325 326 326 326 327 328 329 330 331 332 333 334 335 336 337 338 339 340 342 343 345 347 348 351 354 355 355 355 355 354 354 353 350 345 338 331 325 319 315 311 304 296 285 272 260 252 245 239 235 231 229 227 226 224 223 223 222 222 221 221 221 221 220 219 220 220 221 222 222 221 221 221 221 220 220 220 219
318 318 319 319 320 322 323 325 326 326 326 326 327 329 330 331 332 332 333 335 336 337 337 338 339 340 341 343 346 348 349 352 355 357 358 359 359 360 359 358 356 352 345 338 332 328 323 319 313 304 294 281 268 257 249 243 238 234 231 228 227 225 224 223 223 222 222 221 221 221 221 220 219 220 220 221 222 222 221 221 221 221 220 220 219
318 318 319 320 321 323 324 326 326 326 326 327 328 329 330 331 331 332 333 335 336 337 337 337 338 339 340 343 346 349 350 352 356 358 359 1 2 3 4 3 1 358 354 347 341 336 330 325 320 314 305 292 278 265 255 247 242 237 233 230 228 226 225 224 223 222 222 221 221 220 221 220 220 219 220 220 221 222 222 222 222 221 220 220 219
318 318 320 321 322 323 325 326 326 325 326 327 328 329 330 330 331 332 334 336 337 337 337 337 337 339 341 343 346 349 350 351 355 357 359 1 3 5 6 7 6 3 0 356 349 343 337 332 326 321 315 304 290 275 262 253 246 241 237 233 229 227 225 224 223 223 222 222 221 221 220 220 220 220 219 220 220 221 222 222 222 222 221 220 219
318 319 321 322 323 324 325 325 325 325 326 328 328 329 329 330 331 332 334 336 337 336 337 337 337 338 341 343 346 349 350 351 353 356 358 360 2 4 6 7 7 7 5 2 357 350 344 338 332 326 320 313 302 287 273 261 251 244 240 236 233 229 226 225 224 223 223 222 222 221 220 220 220 220 220 219 220 220 221 222 222 222 222 221 220
319 320 322 323 323 324 325 325 325 325 326 327 328 328 329 330 330 332 334 336 337 336 337 337 337 338 341 343 345 348 350 351 352 353 356 358 360 2 4 5 6 7 7 6 3 358 352 346 340 333 325 318 310 299 285 271 259 249 242 238 236 233 229 226 225 224 223 223 222 222 221 220 220 220 220 220 219 220 220 221 222 223 222 222 221
320 321 322 323 324 324 324 324 324 325 326 327 327 328 329 330 330 331 333 335 337 337 337 337 338 339 341 343 345 347 349 350 351 352 354 356 358 360 1 2 3 4 5 6 6 4 360 354 347 339 332 323 315 305 294 281 269 257 248 241 237 235 232 229 226 224 223 223 223 222 222 221 221 220 220 220 220 220 220 221 222 222 223 223 222
321 322 322 323 323 323 323 324 324 325 326 326 327 328 329 329 330 332 333 335 337 337 337 338 339 340 341 342 344 346 348 350 350 350 352 354 356 357 358 359 0 1 1 3 4 4 3 360 354 346 338 329 320 310 300 290 278 266 255 246 239 235 234 231 228 226 224 223 223 222 222 222 222 221 221 220 220 220 220 220 221 222 222 223 223
322 322 323 323 322 323 323 324 324 325 325 326 327 328 329 330 331 332 333 335 337 337 337 338 340 341 341 342 344 345 347 349 349 349 350 352 353 355 355 356 357 358 359 360 1 2 2 2 359 354 347 339 329 318 307 296 285 274 263 253 243 236 234 233 231 228 226 224 223 223 222 222 222 222 221 221 220 220 220 220 220 221 222 223 223
323 323 323 322 322 322 323 324 324 324 325 327 328 328 329 330 331 333 334 335 336 336 336 338 341 342 342 342 344 346 347 347 348 348 349 350 352 352 353 354 354 355 355 356 358 359 0 1 0 358 354 347 338 328 317 304 293 281 270 260 250 241 235 232 232 230 228 226 224 223 223 222 222 222 222 221 221 221 221 221 221 221 221 222 223
324 324 323 322 322 322 323 324 324 324 326 327 328 328 329 330 331 333 334 335 336 336 337 339 342 343 343 343 345 346 347 346 347 348 348 350 351 351 352 352 352 353 353 353 355 356 358 359 360 359 357 353 346 339 331 319 306 292 278 266 256 247 239 233 231 231 230 227 225 224 223 223 223 222 222 222 221 221 221 221 221 221 221 221 222
324 324 324 323 323 323 324 324 324 325 327 328 328 328 329 330 332 333 335 336 337 337 338 340 342 344 345 345 346 347 347 346 346 348 348 349 350 351 351 352 352 351 352 352 352 353 355 356 357 358 358 356 352 346 339 330 318 303 288 274 262 253 244 236 232 230 230 229 227 225 224 223 223 223 222 222 222 222 221 221 221 221 221 221 222
325 325 324 324 324 323 324 325 325 326 328 328 328 328 329 331 333 333 335 336 337 338 340 341 343 345 346 347 347 347 347 347 347 347 348 349 350 351 351 351 351 351 351 351 351 351 352 354 356 356 357 356 354 351 346 340 330 317 300 283 268 257 248 241 234 231 229 229 228 226 225 224 223 223 222 222 222 222 222 222 222 222 222 221 222
325 325 325 325 325 325 326 326 327 328 328 328 328 329 330 332 333 333 335 336 337 339 341 342 344 346 347 347 348 348 348 348 348 347 347 349 350 351 352 351 351 350 350 350 350 350 351 352 353 354 355 355 355 354 352 348 342 332 318 299 279 262 252 245 238 232 230 229 228 227 226 225 224 223 223 222 222 222 222 222 222 222 222 222 222
326 326 326 326 326 326 327 328 328 328 328 328 328 330 331 333 333 334 335 337 338 341 342 342 344 346 347 348 349 348 348 348 348 347 348 349 351 352 353 352 351 350 349 349 349 349 350 350 350 351 352 353 354 354 354 352 348 342 332 317 297 275 258 248 242 236 231 229 228 227 226 225 224 224 223 223 222 222 222 222 222 222 222 222 222
327 327 327 328 328 328 328 329 329 328 328 328 329 331 332 333 333 334 336 337 339 342 343 343 344 347 348 349 350 350 349 348 348 348 349 351 352 354 354 353 351 350 349 348 348 348 348 348 348 349 350 352 353 354 354 353 351 348 342 331 315 293 270 254 245 240 234 230 228 227 227 226 225 224 224 223 223 222 222 222 222 222 222 222 222
328 328 328 329 329 329 329 329 329 328 328 329 330 332 333 333 334 335 336 337 340 344 345 345 346 348 350 351 351 351 350 349 350 351 351 353 354 356 356 355 353 351 350 348 347 347 347 347 348 347 348 350 352 353 353 353 352 350 347 340 327 310 288 265 250 243 238 233 229 227 227 226 225 225 224 223 223 223 223 222 222 222 222 223 223
328 328 329 329 329 329 330 329 329 329 329 331 332 333 334 334 335 336 337 339 343 346 347 348 349 351 352 352 352 352 352 352 352 353 354 355 356 358 358 358 356 354 352 350 348 346 346 346 347 347 347 348 351 352 353 352 352 351 349 345 338 323 304 283 261 247 241 237 232 228 227 226 225 225 224 224 223 223 223 223 223 223 222 223 223
329 329 329 329 329 330 330 330 329 330 331 333 334 335 335 336 337 338 340 343 347 350 351 352 353 354 355 354 354 354 354 353 354 355 356 357 358 359 360 359 358 357 355 353 350 348 346 345 346 347 346 347 349 351 352 352 352 351 350 348 343 333 315 296 276 257 245 239 236 231 227 226 226 225 224 224 223 223 223 223 223 223 222 223 223
328 328 329 329 330 331 330 330 330 332 333 335 336 338 338 339 340 342 345 348 350 353 354 355 355 357 358 357 356 356 355 355 356 357 358 358 358 359 359 360 359 359 358 356 353 350 347 346 346 347 346 345 346 349 352 352 352 352 351 349 346 340 326 307 288 271 255 243 238 234 230 227 226 225 225 224 224 223 223 223 223 223 223 223 223
328 328 329 331 331 331 331 331 332 334 336 337 338 340 341 342 344 347 350 352 353 355 357 358 359 360 0 0 360 359 358 358 359 359 359 359 358 358 358 359 360 360 359 358 356 353 350 348 347 348 346 344 345 348 351 352 352 352 352 351 349 344 335 320 301 282 267 252 242 237 233 229 227 226 225 225 224 224 223 223 223 223 223 223 223
327 328 330 331 331 331 331 332 334 337 338 339 340 343 345 347 349 352 354 356 358 359 1 2 3 3 3 3 2 3 2 1 0 360 359 358 358 357 357 358 359 360 0 0 359 356 352 349 349 349 347 345 344 346 349 351 352 353 353 352 351 349 342 330 317 298 279 264 250 240 235 232 228 227 226 225 225 225 224 223 223 223 223 223 223
327 329 330 331 331 331 332 334 337 340 341 342 344 347 349 351 353 356 359 1 3 3 3 4 3 3 4 3 3 3 3 2 1 0 360 358 357 356 356 357 358 360 0 1 2 360 356 353 351 350 349 347 345 345 347 350 352 353 355 354 353 351 347 338 329 319 299 279 262 246 237 233 230 227 226 226 226 225 225 224 223 223 223 223 223
328 329 331 331 332 332 334 337 340 342 343 345 348 350 351 353 356 360 2 4 5 6 5 5 3 2 2 2 2 1 1 1 1 0 359 358 357 355 355 356 357 359 0 2 2 2 360 357 355 353 351 348 346 345 347 349 351 353 355 356 354 353 352 346 339 333 324 305 281 255 238 231 229 226 225 225 225 225 225 225 224 223 223 223 224
329 330 332 332 333 335 337 340 342 344 345 347 350 351 353 355 358 1 4 6 8 7 6 5 4 2 1 0 360 359 359 358 359 358 358 358 356 355 355 355 356 358 360 1 2 3 3 1 359 356 352 348 346 344 346 350 351 353 355 356 356 356 355 353 348 343 340 332 312 276 245 231 226 224 223 223 223 224 225 225 225 224 224 223 224
330 332 333 333 335 337 340 342 343 345 347 349 351 353 355 358 1 3 5 6 6 5 4 2 1 360 358 357 356 357 357 356 356 356 355 356 356 355 355 355 355 356 358 360 1 3 5 5 4 360 353 349 346 345 346 349 352 354 356 357 357 356 356 357 356 353 349 344 333 305 266 242 231 225 221 220 221 222 224 225 225 225 224 224 224
331 332 334 335 337 339 341 343 344 345 346 348 351 354 357 359 2 3 3 3 2 1 0 359 357 355 354 354 353 353 353 354 354 353 353 353 354 354 355 356 356 356 357 359 1 3 5 7 8 5 359 354 350 348 348 351 353 355 356 357 357 358 357 358 360 0 357 350 341 323 293 262 243 233 225 220 218 220 222 224 225 226 225 225 225
331 333 334 335 337 340 342 343 343 343 345 348 351 354 357 359 360 0 360 359 358 357 356 355 353 352 350 350 350 350 350 350 351 351 351 351 352 353 355 356 357 357 357 358 359 1 3 6 9 9 6 1 357 353 352 353 355 356 356 357 357 358 358 358 359 1 2 357 347 334 313 288 261 244 234 227 222 220 220 222 224 225 226 226 226
331 332 333 335 337 340 341 342 342 343 345 348 351 354 356 356 357 357 356 355 355 354 353 352 351 350 348 348 348 348 348 348 348 348 349 349 350 351 354 356 358 357 356 357 358 0 2 5 8 10 10 8 4 360 356 355 356 357 357 357 357 357 358 359 359 360 2 1 355 343 326 307 284 261 245 236 228 224 223 222 223 224 225 226 227
331 332 333 335 337 340 341 342 343 344 346 348 350 351 352 353 353 353 353 352 352 352 351 350 350 349 348 348 348 348 348 347 347 347 348 348 349 350 353 356 357 357 357 357 358 359 1 3 6 9 11 11 9 6 2 358 357 357 357 357 356 357 358 359 359 359 360 1 359 352 338 321 302 282 262 247 237 231 227 225 225 225 226 227 227
331 333 334 335 338 340 340 341 342 344 345 346 348 348 348 349 349 349 349 349 349 350 350 349 349 349 349 350 351 351 351 350 349 350 350 350 350 350 352 355 357 357 356 357 357 358 359 2 5 7 9 11 11 9 7 4 1 359 358 357 357 357 357 358 359 359 359 359 359 357 348 333 315 296 277 261 248 239 233 229 227 227 228 228 228
332 333 335 336 337 339 339 339 340 342 343 344 345 345 345 345 346 346 346 346 347 348 348 348 348 350 351 352 354 355 355 355 355 356 356 355 354 353 353 354 355 355 355 355 356 357 358 0 3 5 7 9 9 10 10 9 6 3 360 357 356 356 356 356 358 358 358 358 358 358 355 345 330 312 292 274 260 249 240 234 230 229 229 229 229
333 333 334 336 337 337 337 337 338 339 341 341 341 342 342 343 343 344 344 344 346 347 347 347 348 350 352 354 356 357 357 358 358 359 360 0 359 358 357 355 354 353 353 354 355 356 356 357 0 3 5 6 7 8 9 10 9 6 2 359 356 355 355 355 356 357 358 358 357 358 357 352 341 326 308 289 271 258 249 241 235 231 230 229 229
332 331 332 334 335 336 335 335 336 337 338 338 339 339 340 341 342 342 342 343 344 345 345 346 348 350 352 354 356 358 358 359 359 359 360 1 2 1 0 359 357 355 354 353 354 355 354 355 358 0 2 4 5 6 6 8 9 8 5 2 358 355 354 354 354 354 355 357 358 358 357 354 349 338 323 306 287 269 257 248 242 236 233 231 230
331 331 332 334 335 335 335 335 335 336 336 336 337 337 338 338 339 340 341 342 343 343 345 346 349 351 352 354 356 357 358 358 358 359 359 0 1 2 2 1 1 360 358 356 355 355 355 356 358 359 359 0 2 3 4 5 6 6 6 4 2 358 355 353 353 353 353 355 357 357 356 354 351 345 334 319 304 286 268 256 248 243 238 234 232
330 331 332 333 334 334 333 333 334 334 334 334 334 334 335 336 337 339 340 341 341 342 345 348 350 351 353 353 355 356 357 356 356 356 357 358 359 360 0 0 0 1 1 360 359 358 358 358 359 359 359 358 359 359 0 1 2 3 3 3 3 1 358 354 352 352 351 351 353 356 357 354 351 347 341 331 316 300 284 268 256 249 244 240 236
331 332 333 333 332 332 332 331 331 331 331 332 332 332 333 335 337 338 338 339 340 342 346 349 351 353 354 354 354 354 355 355 354 354 355 355 355 356 357 357 358 359 360 1 1 2 1 1 0 360 359 358 357 357 357 357 358 359 359 0 1 1 360 357 354 351 350 349 349 352 355 355 352 348 344 339 329 315 298 282 268 256 249 245 241
332 332 332 332 331 330 330 330 330 330 330 330 331 331 332 334 336 337 337 338 340 344 347 350 351 352 353 353 353 352 353 353 353 353 352 352 353 353 353 354 354 355 356 358 359 1 2 3 3 2 0 359 357 355 354 353 354 354 355 356 357 358 358 358 356 353 350 348 347 347 349 352 352 350 345 341 336 328 314 296 282 269 259 251 246
Height
10842 10838 10835 10832 10828 10825 10821 10817 10813 10809 10804 10800 10795 10790 10786 10781 10777 10772 10768 10763 10759 10754 10748 10743 10737 10731 10726 10720 10715 10710 10705 10701 10696 10692 10688 10684 10680 10677 10675 10673 10672 10671 10672 10672 10672 10673 10675 10677 10680 10684 10687 10690 10694 10699 10704 10709 10714 10719 10724 10730 10738 10744 10748 10753 10760 10766 10774 10781 10788 10794 10800 10805 10811 10817 10823 10828 10831 10835 10840 10846 10851 10855 10859 10863 10867
10836 10833 10830 10826 10822 10819 10815 10811 10807 10803 10798 10793 10788 10784 10779 10774 10770 10765 10760 10756 10751 10745 10739 10734 10728 10723 10717 10711 10706 10701 10696 10691 10686 10682 10677 10673 10669 10666 10663 10661 10660 10659 10659 10659 10660 10662 10663 10665 10667 10671 10674 10678 10682 10686 10691 10696 10702 10707 10713 10718 10725 10731 10736 10743 10750 10757 10764 10771 10778 10784 10789 10795 10801 10808 10814 10819 10823 10827 10832 10838 10844 10849 10852 10856 10861
10831 10828 10824 10821 10817 10813 10809 10805 10801 10796 10792 10787 10782 10777 10772 10768 10763 10758 10753 10747 10742 10737 10731 10726 10720 10715 10710 10704 10698 10693 10687 10682 10677 10672 10668 10663 10659 10656 10653 10651 10649 10648 10647 10647 10648 10650 10651 10653 10655 10658 10662 10666 10670 10674 10678 10684 10690 10695 10701 10707 10712 10718 10725 10733 10740 10746 10754 10760 10767 10773 10778 10784 10791 10798 10804 10810 10815 10820 10825 10830 10836 10842 10846 10849 10854
10826 10823 10819 10815 10811 10807 10804 10800 10795 10791 10786 10781 10776 10771 10766 10761 10756 10751 10745 10740 10735 10730 10724 10719 10713 10708 10702 10697 10691 10686 10680 10674 10669 10664 10659 10655 10651 10648 10645 10642 10639 10638 10637 10637 10637 10638 10640 10642 10644 10647 10650 10654 10658 10662 10666 10672 10678 10683 10689 10695 10701 10707 10714 10721 10728 10735 10742 10750 10756 10762 10768 10775 10781 10788 10795 10802 10807 10813 10818 10823 10828 10834 10840 10843 10846
10821 10817 10813 10809 10805 10802 10798 10794 10790 10785 10780 10775 10770 10765 10760 10755 10749 10744 10739 10734 10729 10724 10718 10712 10707 10701 10696 10690 10685 10679 10674 10668 10663 10658 10653 10648 10644 10641 10638 10634 10632 10630 10628 10628 10627 10628 10629 10631 10633 10636 10639 10643 10647 10651 10655 10660 10666 10671 10678 10684 10689 10695 10702 10710 10717 10724 10731 10739 10746 10753 10759 10765 10772 10779 10785 10792 10798 10804 10809 10814 10819 10825 10832 10837 10840
10816 10812 10808 10804 10800 10796 10793 10789 10785 10780 10775 10770 10765 10759 10754 10749 10744 10738 10733 10728 10723 10718 10712 10707 10701 10695 10690 10684 10679 10673 10668 10663 10658 10652 10647 10643 10639 10636 10632 10629 10626 10623 10621 10620 10619 10619 10620 10621 10623 10626 10629 10632 10636 10640 10644 10649 10654 10660 10666 10672 10678 10684 10690 10697 10705 10713 10720 10728 10736 10743 10748 10754 10762 10768 10774 10781 10788 10794 10799 10804 10810 10816 10823 10830 10833
10811 10807 10803 10799 10795 10791 10788 10784 10780 10775 10770 10765 10759 10754 10749 10744 10739 10734 10728 10723 10718 10713 10707 10702 10696 10690 10684 10679 10673 10668 10662 10657 10652 10647 10642 10638 10634 10631 10627 10623 10620 10617 10615 10614 10612 10612 10612 10613 10614 10616 10619 10622 10625 10629 10633 10638 10643 10649 10654 10660 10667 10673 10679 10686 10694 10702 10710 10717 10726 10732 10738 10745 10752 10758 10764 10771 10777 10783 10788 10795 10801 10807 10814 10821 10826
10807 10803 10799 10795 10790 10786 10782 10779 10775 10770 10765 10759 10754 10749 10744 10739 10734 10729 10724 10719 10714 10708 10703 10697 10691 10686 10680 10674 10669 10663 10657 10651 10646 10641 10636 10632 10628 10625 10622 10618 10615 10612 10610 10608 10607 10606 10606 10606 10606 10608 10610 10612 10615 10619 10623 10628 10633 10638 10643 10649 10656 10662 10668 10675 10683 10691 10700 10707 10715 10721 10728 10736 10741 10746 10753 10759 10765 10771 10778 10786 10793 10799 10805 10811 10818
10803 10799 10795 10790 10785 10781 10777 10774 10770 10765 10760 10755 10750 10745 10740 10735 10731 10726 10721 10715 10710 10704 10699 10693 10688 10682 10676 10671 10665 10659 10653 10647 10641 10636 10631 10627 10623 10619 10616 10613 10610 10607 10605 10603 10602 10600 10600 10600 10600 10601 10602 10604 10607 10610 10613 10617 10623 10628 10633 10639 10645 10652 10658 10664 10672 10680 10689 10697 10703 10710 10718 10724 10729 10735 10742 10748 10754 10761 10768 10776 10783 10789 10796 10802 10809
10799 10794 10790 10785 10781 10777 10773 10769 10764 10760 10755 10750 10746 10741 10736 10732 10727 10722 10717 10711 10706 10700 10694 10689 10684 10678 10672 10667 10661 10656 10650 10644 10638 10632 10627 10623 10618 10614 10610 10607 10605 10603 10600 10599 10598 10596 10595 10594 10594 10594 10595 10597 10599 10602 10605 10608 10613 10618 10623 10628 10634 10641 10648 10655 10662 10669 10678 10686 10693 10700 10707 10712 10717 10724 10730 10737 10744 10751 10759 10767 10773 10779 10786 10793 10799
10794 10790 10785 10781 10776 10772 10768 10764 10759 10755 10750 10746 10741 10737 10733 10728 10723 10718 10713 10707 10702 10696 10690 10685 10679 10674 10668 10663 10658 10653 10648 10642 10636 10630 10625 10620 10615 10611 10606 10603 10601 10598 10596 10595 10594 10592 10591 10589 10589 10589 10589 10591 10592 10594 10597 10600 10604 10608 10613 10619 10625 10631 10638 10644 10651 10658 10666 10675 10682 10689 10695 10701 10706 10713 10721 10728 10735 10742 10750 10757 10763 10769 10776 10782 10789
10789 10785 10781 10776 10772 10768 10763 10759 10754 10750 10746 10741 10737 10734 10729 10724 10719 10714 10709 10704 10699 10693 10687 10682 10677 10671 10667 10661 10656 10651 10646 10640 10634 10628 10623 10618 10613 10608 10604 10601 10598 10595 10593 10591 10590 10589 10587 10586 10585 10584 10584 10585 10586 10587 10589 10592 10595 10599 10604 10609 10615 10621 10627 10633 10640 10647 10655 10662 10670 10678 10685 10691 10698 10706 10713 10719 10726 10733 10740 10746 10752 10758 10764 10771 10779
10785 10780 10776 10772 10767 10763 10758 10754 10750 10746 10742 10738 10734 10730 10726 10721 10716 10711 10706 10701 10696 10691 10685 10680 10675 10671 10666 10661 10655 10650 10645 10639 10633 10627 10622 10617 10612 10607 10603 10599 10596 10593 10591 10589 10587 10586 10585 10583 10581 10580 10580 10580 10581 10582 10583 10585 10588 10591 10595 10600 10605 10611 10617 10623 10630 10637 10644 10651 10659 10667 10675 10683 10689 10696 10702 10709 10715 10722 10729 10735 10741 10748 10755 10761 10770
10780 10776 10772 10768 10763 10759 10754 10750 10746 10742 10738 10734 10730 10726 10722 10718 10714 10709 10704 10699 10694 10689 10684 10679 10674 10669 10665 10661 10656 10650 10644 10639 10633 10627 10621 10616 10611 10607 10603 10599 10596 10592 10589 10587 10585 10583 10582 10580 10579 10577 10576 10576 10576 10577 10578 10579 10581 10584 10587 10591 10596 10601 10607 10613 10620 10626 10633 10640 10648 10656 10665 10672 10679 10686 10693 10699 10705 10712 10719 10725 10732 10739 10746 10753 10762
10776 10772 10768 10763 10759 10755 10750 10746 10742 10738 10734 10730 10727 10723 10719 10715 10711 10707 10702 10697 10692 10687 10682 10677 10673 10668 10664 10660 10655 10649 10643 10638 10633 10627 10621 10616 10611 10607 10602 10599 10595 10592 10588 10585 10583 10581 10579 10577 10576 10574 10573 10572 10572 10573 10573 10574 10576 10577 10580 10583 10587 10593 10598 10604 10609 10616 10622 10629 10637 10645 10653 10661 10668 10676 10683 10690 10696 10703 10710 10716 10722 10729 10737 10744 10752
10771 10767 10763 10759 10755 10750 10746 10742 10739 10735 10731 10727 10723 10719 10716 10712 10708 10704 10700 10695 10690 10685 10680 10676 10671 10667 10662 10658 10653 10648 10643 10638 10632 10627 10621 10616 10611 10607 10602 10598 10595 10592 10589 10585 10581 10579 10577 10575 10573 10572 10570 10569 10568 10568 10569 10570 10571 10572 10574 10576 10579 10584 10589 10595 10600 10606 10612 10619 10626 10634 10642 10650 10658 10665 10673 10681 10687 10694 10700 10707 10712 10719 10727 10735 10742
10767 10763 10759 10755 10750 10746 10742 10739 10735 10731 10727 10723 10720 10716 10713 10709 10706 10701 10697 10692 10687 10683 10678 10673 10669 10665 10660 10656 10651 10647 10642 10637 10632 10627 10622 10616 10612 10607 10603 10599 10595 10591 10588 10585 10581 10578 10575 10573 10571 10569 10568 10567 10565 10565 10565 10565 10566 10567 10568 10570 10572 10576 10581 10586 10592 10597 10603 10609 10616 10623 10631 10638 10646 10654 10662 10670 10677 10684 10691 10697 10703 10710 10718 10725 10733
10763 10759 10754 10750 10746 10742 10738 10735 10731 10728 10724 10720 10717 10713 10710 10706 10703 10699 10694 10690 10685 10681 10676 10671 10667 10662 10658 10654 10649 10645 10641 10636 10631 10626 10622 10616 10612 10608 10603 10599 10595 10591 10587 10584 10581 10578 10575 10572 10570 10567 10566 10564 10563 10561 10561 10561 10561 10562 10563 10565 10566 10569 10573 10578 10583 10588 10594 10600 10606 10613 10620 10627 10635 10643 10651 10659 10667 10674 10681 10687 10694 10701 10708 10716 10723
10759 10754 10750 10746 10742 10738 10735 10731 10728 10724 10721 10718 10714 10711 10707 10703 10699 10696 10692 10688 10684 10679 10674 10669 10664 10660 10656 10652 10648 10644 10639 10635 10630 10626 10621 10616 10612 10607 10603 10599 10596 10592 10588 10583 10579 10576 10573 10570 10568 10565 10563 10562 10560 10558 10557 10556 10556 10557 10558 10560 10561 10563 10566 10570 10575 10580 10585 10591 10597 10603 10610 10617 10624 10632 10640 10648 10656 10664 10670 10677 10684 10691 10698 10705 10712
10754 10750 10746 10742 10738 10735 10731 10728 10724 10721 10717 10714 10711 10708 10704 10701 10696 10693 10689 10685 10681 10677 10672 10667 10663 10658 10654 10650 10646 10642 10638 10634 10629 10625 10621 10617 10612 10607 10603 10599 10596 10592 10588 10584 10580 10576 10572 10569 10566 10564 10562 10559 10557 10556 10554 10553 10552 10552 10553 10555 10556 10558 10560 10563 10567 10572 10577 10582 10588 10594 10600 10607 10613 10620 10628 10637 10644 10652 10659 10667 10674 10681 10688 10695 10703
10750 10746 10742 10738 10735 10731 10728 10724 10721 10718 10714 10711 10707 10704 10701 10698 10694 10690 10685 10682 10678 10674 10670 10665 10661 10656 10652 10647 10643 10640 10636 10632 10628 10624 10620 10616 10612 10608 10603 10600 10596 10592 10588 10584 10580 10577 10573 10569 10566 10563 10560 10557 10555 10553 10551 10550 10549 10548 10548 10549 10551 10553 10555 10557 10560 10564 10569 10574 10579 10585 10591 10597 10603 10610 10617 10625 10633 10641 10649 10657 10664 10671 10678 10685 10693
10746 10742 10739 10735 10731 10728 10724 10721 10718 10715 10711 10708 10704 10701 10697 10694 10691 10687 10682 10679 10675 10671 10667 10663 10659 10654 10650 10646 10642 10638 10634 10631 10627 10624 10620 10616 10611 10607 10603 10599 10595 10592 10588 10584 10580 10576 10572 10569 10565 10561 10558 10555 10552 10550 10549 10547 10545 10544 10544 10544 10545 10547 10549 10551 10554 10558 10561 10566 10571 10576 10582 10587 10593 10599 10606 10614 10622 10630 10638 10645 10653 10661 10668 10675 10682
10743 10739 10736 10732 10728 10725 10721 10718 10715 10712 10708 10705 10701 10697 10694 10690 10687 10684 10680 10676 10672 10668 10664 10660 10657 10652 10648 10644 10640 10636 10633 10630 10626 10623 10619 10615 10611 10606 10603 10599 10594 10590 10586 10583 10579 10575 10571 10567 10563 10559 10556 10553 10550 10548 10545 10544 10542 10541 10540 10539 10540 10542 10544 10546 10548 10551 10554 10559 10563 10567 10573 10578 10583 10589 10596 10603 10611 10618 10626 10634 10642 10650 10658 10665 10671
10740 10736 10733 10729 10725 10722 10718 10715 10712 10708 10705 10701 10698 10694 10691 10687 10684 10680 10677 10673 10669 10666 10661 10658 10654 10651 10647 10643 10638 10634 10631 10628 10625 10621 10617 10613 10609 10605 10601 10597 10593 10589 10585 10581 10577 10573 10570 10566 10562 10559 10555 10552 10548 10545 10543 10541 10539 10538 10536 10536 10535 10536 10538 10540 10543 10545 10548 10551 10555 10559 10564 10569 10574 10580 10587 10593 10600 10607 10615 10623 10631 10639 10646 10653 10660
10736 10733 10729 10726 10722 10719 10716 10713 10709 10705 10702 10698 10694 10691 10687 10684 10680 10677 10674 10670 10667 10663 10659 10655 10652 10649 10645 10641 10636 10633 10629 10626 10623 10619 10615 10611 10607 10603 10599 10595 10591 10588 10584 10580 10576 10572 10568 10565 10561 10558 10554 10550 10547 10544 10541 10538 10536 10534 10533 10532 10531 10531 10533 10535 10537 10539 10542 10544 10548 10552 10556 10560 10565 10571 10578 10584 10590 10597 10605 10612 10620 10627 10635 10642 10649
10733 10730 10726 10723 10719 10716 10713 10710 10706 10702 10699 10695 10692 10688 10684 10681 10677 10673 10670 10667 10664 10660 10657 10654 10651 10647 10644 10640 10636 10632 10629 10625 10621 10617 10613 10610 10605 10601 10597 10593 10589 10585 10582 10578 10574 10570 10566 10562 10559 10555 10552 10549 10545 10542 10539 10536 10533 10531 10530 10529 10528 10527 10528 10529 10531 10533 10536 10538 10541 10544 10548 10553 10557 10562 10568 10574 10580 10587 10594 10601 10608 10615 10623 10631 10639
10731 10727 10724 10720 10717 10713 10710 10707 10703 10699 10696 10692 10689 10685 10682 10678 10675 10671 10667 10664 10661 10658 10655 10652 10649 10646 10643 10639 10636 10632 10628 10625 10621 10617 10612 10609 10605 10600 10596 10592 10588 10584 10580 10576 10572 10568 10564 10560 10557 10553 10550 10547 10544 10540 10537 10534 10531 10529 10527 10525 10524 10524 10523 10524 10525 10527 10530 10532 10535 10538 10541 10545 10549 10554 10559 10565 10571 10577 10583 10590 10597 10604 10612 10620 10628
10728 10724 10721 10718 10714 10710 10707 10704 10700 10696 10693 10689 10686 10683 10679 10675 10672 10668 10665 10661 10659 10656 10653 10650 10648 10645 10642 10639 10635 10632 10628 10624 10621 10617 10612 10608 10604 10600 10595 10591 10587 10582 10578 10574 10569 10565 10562 10558 10555 10552 10549 10546 10542 10539 10536 10533 10530 10527 10524 10522 10521 10520 10520 10520 10520 10522 10524 10526 10529 10531 10534 10538 10542 10546 10551 10556 10562 10567 10573 10580 10586 10594 10601 10609 10616
10725 10721 10718 10715 10711 10708 10704 10701 10698 10694 10690 10687 10684 10680 10677 10673 10669 10666 10662 10660 10657 10654 10651 10648 10645 10643 10640 10637 10633 10630 10627 10624 10620 10616 10612 10608 10604 10600 10596 10591 10586 10581 10577 10572 10568 10564 10561 10557 10553 10550 10547 10544 10540 10536 10533 10530 10527 10525 10522 10520 10518 10517 10516 10516 10516 10516 10518 10520 10522 10525 10528 10531 10534 10538 10543 10547 10552 10558 10564 10570 10576 10583 10591 10598 10605
10722 10718 10715 10712 10709 10706 10702 10699 10695 10692 10688 10684 10681 10677 10674 10670 10667 10664 10660 10658 10655 10653 10650 10646 10643 10640 10637 10634 10631 10629 10626 10622 10619 10615 10611 10607 10604 10600 10595 10591 10586 10580 10576 10571 10567 10563 10559 10556 10552 10548 10545 10541 10538 10535 10531 10528 10525 10523 10520 10518 10516 10514 10513 10512 10512 10512 10512 10514 10516 10518 10521 10524 10528 10531 10535 10540 10544 10549 10555 10560 10566 10573 10580 10587 10594
10719 10715 10712 10710 10707 10704 10700 10696 10693 10689 10686 10683 10679 10675 10671 10667 10665 10662 10659 10656 10654 10651 10648 10645 10642 10639 10636 10633 10630 10627 10623 10620 10617 10613 10609 10605 10602 10598 10594 10589 10584 10579 10574 10569 10565 10561 10557 10554 10550 10547 10543 10539 10536 10533 10530 10526 10523 10520 10518 10516 10513 10511 10509 10508 10507 10507 10507 10508 10510 10512 10515 10518 10521 10525 10528 10532 10536 10541 10546 10551 10557 10564 10570 10577 10584
10716 10713 10710 10707 10704 10701 10697 10694 10690 10687 10684 10680 10677 10673 10669 10665 10662 10659 10657 10654 10652 10649 10647 10644 10641 10638 10635 10631 10628 10625 10622 10618 10615 10611 10607 10603 10599 10595 10591 10587 10582 10577 10572 10567 10563 10558 10555 10551 10548 10544 10541 10538 10535 10532 10528 10524 10521 10518 10515 10513 10511 10508 10506 10504 10503 10503 10502 10503 10503 10505 10508 10511 10514 10518 10521 10525 10529 10533 10538 10543 10548 10554 10561 10567 10574
10714 10711 10708 10705 10702 10698 10695 10691 10688 10685 10681 10678 10674 10671 10667 10664 10660 10657 10654 10652 10649 10647 10645 10642 10639 10636 10633 10630 10626 10623 10620 10617 10613 10609 10605 10601 10597 10593 10589 10584 10580 10575 10570 10565 10561 10557 10553 10549 10545 10542 10538 10535 10533 10530 10526 10523 10519 10516 10513 10510 10507 10505 10503 10501 10499 10498 10498 10498 10498 10499 10501 10504 10507 10511 10514 10518 10522 10526 10530 10535 10540 10545 10551 10557 10564
10712 10709 10706 10703 10699 10696 10692 10689 10686 10682 10679 10676 10673 10670 10667 10663 10660 10657 10654 10651 10648 10645 10643 10640 10637 10634 10631 10628 10625 10622 10618 10614 10610 10606 10603 10599 10595 10591 10587 10582 10578 10573 10568 10563 10559 10554 10551 10547 10544 10541 10537 10533 10530 10528 10525 10522 10518 10514 10511 10508 10505 10502 10499 10497 10495 10494 10493 10493 10493 10494 10496 10498 10501 10504 10508 10512 10516 10520 10524 10528 10532 10537 10543 10548 10555
10710 10707 10704 10701 10697 10694 10691 10687 10684 10681 10678 10674 10672 10669 10666 10663 10660 10657 10654 10651 10648 10645 10642 10639 10636 10633 10630 10626 10623 10620 10616 10612 10608 10605 10602 10598 10594 10590 10586 10581 10577 10572 10567 10563 10558 10553 10549 10545 10542 10539 10536 10533 10528 10525 10522 10520 10517 10513 10509 10505 10502 10499 10496 10493 10491 10490 10489 10488 10489 10490 10491 10493 10495 10499 10502 10506 10510 10514 10518 10522 10526 10530 10535 10540 10546
10708 10705 10702 10699 10696 10693 10689 10686 10682 10679 10676 10673 10670 10667 10664 10662 10659 10657 10654 10651 10648 10645 10642 10638 10635 10632 10629 10625 10622 10618 10615 10611 10608 10604 10600 10597 10593 10589 10585 10581 10576 10571 10567 10562 10557 10552 10548 10544 10541 10538 10535 10532 10528 10524 10520 10517 10515 10511 10508 10504 10500 10497 10494 10491 10488 10486 10485 10485 10485 10485 10487 10488 10490 10493 10497 10501 10504 10508 10512 10516 10519 10523 10528 10532 10537
10706 10703 10700 10697 10694 10691 10687 10684 10681 10677 10675 10672 10669 10666 10663 10661 10658 10656 10653 10650 10647 10644 10641 10638 10634 10631 10628 10625 10622 10618 10614 10611 10607 10604 10600 10596 10593 10589 10585 10580 10576 10571 10567 10562 10556 10551 10547 10543 10539 10536 10533 10530 10526 10522 10519 10516 10513 10510 10507 10503 10499 10495 10492 10489 10486 10483 10482 10481 10481 10482 10483 10484 10486 10489 10492 10495 10499 10502 10506 10510 10513 10517 10521 10525 10530
10703 10701 10698 10694 10691 10688 10685 10682 10679 10676 10673 10671 10668 10665 10663 10660 10657 10655 10652 10649 10646 10643 10640 10637 10634 10630 10627 10624 10621 10617 10614 10610 10607 10603 10600 10596 10592 10588 10584 10580 10576 10572 10567 10563 10558 10553 10547 10542 10538 10534 10531 10528 10524 10521 10518 10515 10512 10508 10504 10501 10498 10494 10491 10488 10485 10482 10480 10479 10479 10479 10480 10481 10482 10484 10487 10490 10493 10497 10501 10504 10507 10511 10515 10519 10523
10701 10698 10695 10692 10689 10686 10683 10680 10677 10675 10672 10670 10667 10665 10662 10659 10657 10654 10651 10648 10645 10642 10639 10636 10633 10629 10626 10622 10619 10616 10613 10610 10606 10603 10599 10596 10592 10588 10584 10580 10575 10571 10567 10563 10559 10553 10547 10542 10537 10533 10530 10526 10523 10519 10516 10514 10511 10508 10504 10500 10497 10493 10490 10487 10484 10481 10479 10478 10478 10478 10478 10479 10480 10481 10483 10485 10489 10492 10495 10498 10502 10505 10509 10513 10517
10697 10695 10692 10690 10687 10684 10681 10679 10676 10674 10671 10669 10667 10664 10662 10659 10656 10653 10651 10648 10645 10642 10638 10635 10631 10628 10625 10621 10618 10614 10611 10608 10605 10601 10598 10594 10590 10587 10583 10578 10574 10570 10566 10562 10558 10553 10548 10543 10538 10533 10529 10525 10522 10519 10515 10512 10509 10507 10504 10500 10497 10493 10490 10487 10484 10482 10479 10478 10477 10477 10477 10478 10478 10479 10480 10482 10484 10487 10490 10493 10496 10500 10503 10507 10511
10695 10692 10690 10687 10685 10683 10680 10678 10676 10673 10671 10669 10666 10664 10661 10658 10656 10653 10650 10647 10644 10641 10638 10634 10631 10627 10623 10620 10616 10613 10609 10606 10603 10600 10596 10593 10589 10585 10581 10577 10573 10569 10565 10561 10557 10553 10549 10543 10538 10534 10529 10524 10520 10517 10514 10511 10508 10505 10503 10500 10497 10493 10490 10487 10484 10482 10480 10478 10477 10476 10476 10476 10477 10477 10478 10479 10481 10483 10485 10488 10491 10495 10498 10501 10504
10694 10691 10689 10686 10684 10681 10679 10677 10674 10672 10670 10667 10665 10663 10660 10657 10654 10652 10649 10646 10643 10640 10636 10633 10629 10626 10622 10618 10615 10611 10608 10604 10601 10598 10595 10591 10588 10584 10580 10576 10573 10569 10565 10561 10557 10552 10548 10543 10539 10534 10529 10525 10520 10517 10513 10510 10508 10505 10502 10499 10496 10493 10491 10487 10485 10482 10480 10478 10477 10476 10475 10475 10475 10475 10476 10477 10479 10480 10482 10485 10487 10490 10492 10495 10498
10692 10690 10687 10685 10683 10680 10678 10676 10673 10671 10669 10666 10664 10662 10659 10656 10654 10651 10648 10645 10642 10639 10635 10632 10628 10625 10621 10617 10613 10609 10606 10602 10599 10596 10592 10589 10586 10582 10579 10575 10572 10568 10564 10559 10555 10551 10547 10543 10539 10534 10529 10525 10520 10517 10513 10510 10507 10504 10502 10499 10497 10494 10491 10488 10485 10482 10480 10478 10477 10475 10474 10474 10474 10474 10474 10475 10476 10477 10479 10481 10484 10486 10488 10490 10493
10690 10688 10685 10683 10681 10678 10676 10674 10672 10670 10668 10666 10663 10661 10658 10655 10652 10649 10646 10643 10640 10637 10634 10631 10627 10624 10620 10616 10612 10608 10604 10601 10597 10594 10590 10587 10584 10580 10577 10574 10570 10567 10563 10559 10555 10551 10547 10543 10539 10534 10530 10525 10521 10518 10514 10511 10507 10504 10501 10499 10496 10494 10491 10488 10485 10483 10481 10478 10476 10475 10474 10473 10473 10472 10472 10473 10473 10474 10476 10478 10480 10482 10484 10487 10489
10688 10685 10683 10681 10678 10676 10674 10672 10671 10669 10666 10664 10662 10659 10657 10654 10651 10648 10645 10642 10639 10636 10633 10629 10626 10623 10619 10616 10611 10607 10604 10600 10596 10593 10589 10586 10582 10579 10576 10572 10569 10566 10563 10559 10555 10551 10547 10543 10539 10534 10530 10526 10523 10519 10515 10511 10508 10504 10501 10498 10496 10493 10491 10488 10486 10483 10481 10479 10476 10475 10473 10472 10471 10471 10471 10471 10471 10472 10473 10474 10476 10478 10480 10483 10485
10685 10683 10681 10679 10677 10675 10673 10671 10669 10667 10665 10663 10660 10658 10655 10653 10650 10647 10644 10641 10638 10635 10631 10628 10624 10621 10618 10615 10611 10607 10604 10600 10596 10592 10589 10585 10582 10578 10575 10571 10568 10565 10562 10558 10555 10551 10547 10543 10539 10535 10531 10528 10524 10520 10516 10512 10508 10505 10502 10499 10496 10493 10490 10488 10486 10484 10482 10479 10477 10475 10473 10472 10470 10470 10469 10469 10469 10469 10470 10471 10472 10474 10476 10478 10481
10684 10682 10680 10677 10675 10673 10671 10669 10667 10665 10663 10661 10658 10656 10653 10651 10648 10646 10642 10639 10636 10633 10630 10626 10623 10619 10616 10613 10610 10606 10603 10599 10595 10592 10588 10585 10581 10577 10574 10570 10567 10563 10560 10557 10554 10551 10547 10543 10539 10534 10530 10527 10524 10520 10517 10513 10509 10506 10503 10500 10496 10493 10491 10488 10486 10484 10481 10479 10477 10474 10472 10471 10470 10469 10468 10467 10467 10467 10467 10468 10468 10470 10471 10474 10476
10682 10680 10678 10676 10674 10671 10669 10667 10665 10663 10661 10659 10656 10654 10651 10649 10646 10644 10641 10637 10634 10631 10628 10625 10621 10618 10614 10611 10608 10605 10601 10598 10594 10591 10587 10584 10580 10577 10573 10570 10566 10563 10559 10556 10552 10549 10546 10542 10538 10533 10529 10526 10523 10520 10517 10513 10510 10507 10504 10501 10497 10494 10491 10488 10485 10483 10481 10479 10477 10474 10472 10471 10469 10468 10467 10466 10466 10465 10465 10465 10466 10466 10468 10469 10471
10681 10678 10676 10674 10672 10670 10668 10666 10664 10661 10659 10657 10655 10652 10650 10647 10644 10641 10638 10635 10633 10630 10626 10623 10620 10616 10613 10610 10606 10603 10600 10597 10594 10590 10587 10583 10579 10576 10572 10569 10566 10562 10559 10556 10552 10548 10545 10541 10537 10533 10529 10526 10522 10519 10516 10514 10511 10508 10505 10501 10498 10495 10492 10489 10486 10483 10481 10479 10477 10475 10473 10471 10469 10468 10467 10466 10465 10464 10464 10464 10463 10464 10464 10466 10467
10679 10677 10674 10672 10670 10668 10666 10664 10662 10660 10657 10655 10652 10650 10647 10645 10642 10639 10636 10633 10630 10628 10625 10622 10618 10615 10612 10609 10606 10603 10600 10596 10593 10589 10586 10582 10579 10575 10572 10568 10565 10561 10557 10554 10550 10547 10543 10539 10535 10531 10527 10524 10521 10518 10516 10513 10511 10508 10505 10502 10499 10496 10493 10489 10486 10483 10481 10479 10477 10475 10473 10471 10469 10468 10466 10465 10464 10463 10462 10462 10462 10462 10462 10463 10464
10677 10674 10672 10670 10668 10666 10664 10662 10660 10657 10655 10652 10650 10647 10645 10642 10639 10637 10634 10631 10629 10626 10623 10620 10617 10614 10611 10608 10605 10601 10598 10595 10591 10588 10585 10581 10578 10574 10571 10567 10564 10561 10557 10553 10549 10546 10542 10539 10534 10530 10527 10524 10521 10518 10516 10513 10510 10508 10505 10503 10500 10497 10494 10490 10487 10484 10481 10478 10476 10474 10473 10472 10470 10469 10467 10465 10463 10462 10461 10460 10460 10460 10460 10460 10461